Flag for U.S.A. Weather past 2 weeks in Milwaukee, Wisconsin, U.S.A.

Now
30 °F

Sunny.


Feels Like: 21 °F
Forecast: 20 / 32 °F
Wind: 10 mph from West

Location: Milwaukee / Timmerman

Current Time: Jan 31, 2015 at 10:41:23 AM

Latest Report: Jan 31, 2015 at 9:45 AM


Visibility: 10 mi

Pressure: 30.18 "Hg

Humidity: 59%

Dew point: 18 °F

Location of MilwaukeeLocation

Historic Weather in Milwaukee — Graph

°F

Milwaukee temperature yesterday

Maximum temperature yesterday: 27 °F (at 12:15 AM)
Minimum temperature yesterday: 16 °F (at 6:45 AM)
Average temperature yesterday: 21 °F

Past Weeks' High & Low Weather Summary

 TemperatureHumidityPressure
High41 °F (Jan 17, 10:45 AM)93% (Jan 20, 4:15 AM)30.53 "Hg (Jan 20, 4:15 AM)
Low14 °F (Jan 26, 1:55 AM)36% (Jan 30, 1:45 PM)29.52 "Hg (Jan 17, 2:45 PM)
Average29 °F74%30.01 "Hg
* Reported Jan 16 8:45 AM — Jan 31 8:45 AM, Milwaukee, Weather by CustomWeather, © 2014

Note: Actual official high and low records may vary slightly from our data, if they occured in-between our weather recording intervals... More about our weather records

Advertising

Milwaukee weather history for previous 24 hours

 ConditionsComfort  
Time TempWeatherWind HumidityBarometerVisibility
8:45 AM
Jan 31
27 °FSunny.9 mph69%30.19 "Hg10 mi
7:45 AM25 °FOvercast.9 mph69%30.20 "Hg10 mi
6:45 AM25 °FOvercast.9 mph69%30.18 "Hg10 mi
5:35 AM23 °FOvercast.8 mph80%30.19 "Hg10 mi
5:15 AM21 °FPassing clouds.6 mph80%30.20 "Hg10 mi
4:55 AM19 °FClear.6 mph79%30.20 "Hg10 mi
4:35 AM19 °FClear.6 mph79%30.21 "Hg10 mi
4:15 AM19 °FPassing clouds.5 mph79%30.22 "Hg10 mi
3:55 AM19 °FPassing clouds.5 mph79%30.22 "Hg10 mi
3:35 AM19 °FClear.5 mph73%30.22 "Hg10 mi
3:15 AM19 °FClear.3 mph73%30.23 "Hg10 mi
2:55 AM21 °FPassing clouds.5 mph68%30.25 "Hg10 mi
2:35 AM21 °FOvercast.7 mph68%30.25 "Hg10 mi
2:15 AM21 °FOvercast.5 mph68%30.26 "Hg10 mi
1:55 AM21 °FOvercast.6 mph68%30.27 "Hg10 mi
1:35 AM21 °FOvercast.6 mph68%30.28 "Hg10 mi
1:15 AM21 °FOvercast.5 mph68%30.28 "Hg10 mi
12:55 AM21 °FOvercast.5 mph68%30.29 "Hg10 mi
12:35 AM19 °FPassing clouds.6 mph73%30.30 "Hg10 mi
12:15 AM19 °FClear.8 mph73%30.31 "Hg10 mi
11:55 PM
Jan 30
19 °FClear.9 mph73%30.31 "Hg10 mi
11:35 PM19 °FPassing clouds.9 mph73%30.31 "Hg10 mi
11:15 PM19 °FClear.9 mph73%30.31 "Hg10 mi
10:55 PM19 °FClear.8 mph68%30.32 "Hg10 mi
10:35 PM19 °FClear.8 mph68%30.33 "Hg10 mi
10:15 PM19 °FClear.7 mph68%30.34 "Hg10 mi
9:15 PM21 °FPassing clouds.7 mph63%30.35 "Hg10 mi
8:55 PM21 °FClear.7 mph63%30.36 "Hg10 mi
8:35 PM21 °FPassing clouds.7 mph63%30.36 "Hg10 mi
8:15 PM21 °FPassing clouds.6 mph58%30.37 "Hg10 mi
7:45 PM21 °FMostly cloudy.6 mph58%30.39 "Hg10 mi
6:45 PM23 °FPassing clouds.6 mph50%30.40 "Hg10 mi
5:45 PM21 °FClear.6 mph54%30.41 "Hg10 mi
4:45 PM25 °FSunny.6 mph46%30.42 "Hg10 mi
3:45 PM27 °FSunny.7 mph36%30.44 "Hg10 mi
2:45 PM27 °FSunny.7 mph36%30.45 "Hg10 mi
1:45 PM25 °FSunny.5 mph36%30.46 "Hg10 mi
12:45 PM25 °FSunny.No wind39%30.49 "Hg10 mi
11:45 AM23 °FSunny.2 mph46%30.51 "Hg10 mi
10:45 AM21 °FSunny.6 mph49%30.53 "Hg10 mi
Weather by CustomWeather, © 2014

See weather overviewHow to use our weather pages